GFSSE_prec_cloud_003.txt.gz
Cloud_Cover
34 10 5 5 5 5 5 5 21 96 100 100 42 100 100 100 100 100 95 95 100 100 94 100 55 8 5 15 94 5 5 100 50 96 31 5 5 6 7 5 64 99 100
0 8 5 5 5 5 5 5 5 43 100 100 100 100 100 100 100 100 94 100 100 100 99 100 100 81 23 12 5 5 16 12 9 9 7 62 5 16 75 8 23 44 91
2 3 4 77 6 5 5 5 5 5 5 88 97 98 100 100 100 100 100 100 100 100 100 100 90 100 35 5 5 70 7 9 5 5 52 64 5 5 66 35 30 5 54
0 0 4 66 66 5 5 5 5 5 5 5 5 98 100 100 100 100 100 100 100 100 100 100 100 100 63 34 5 62 17 78 15 5 18 5 6 5 5 5 70 75 5
0 3 3 77 79 5 5 5 4 4 3 2 5 32 83 71 100 100 100 100 100 100 100 100 89 100 100 100 35 5 5 5 5 5 5 5 5 5 5 42 48 19 5
8 52 0 16 64 5 5 5 0 0 0 0 5 0 5 5 19 100 100 100 100 100 100 100 100 100 100 21 100 5 5 5 5 5 18 14 5 16 8 5 6 7 5
5 4 67 98 5 5 5 5 0 4 5 5 5 5 3 5 13 39 100 100 100 100 100 100 99 100 100 64 100 9 5 9 5 32 6 9 5 58 100 5 5 5 7
26 68 46 60 0 3 5 5 5 0 0 0 0 16 91 12 30 99 62 93 100 100 100 100 99 100 100 100 100 100 5 5 8 26 60 20 65 94 99 5 8 5 5
15 11 1 0 0 0 0 0 0 0 0 4 8 3 5 5 13 100 100 91 100 100 59 100 100 100 100 85 100 100 7 25 5 60 53 20 5 5 77 100 42 8 25
21 4 0 0 0 4 0 0 4 5 73 100 97 100 53 5 5 100 100 100 56 100 100 75 100 100 100 100 100 100 91 29 52 86 46 33 13 100 100 100 98 10 94
2 5 0 0 16 3 2 5 73 100 90 93 100 100 70 4 0 66 96 100 99 100 100 99 71 100 100 100 100 100 99 8 65 65 77 98 54 76 100 100 100 72 100
7 2 0 0 2 56 88 100 100 100 100 92 91 93 18 6 0 3 28 100 100 100 100 100 87 100 100 73 100 100 91 51 94 94 100 89 100 100 100 100 100 50 82
75 1 0 0 2 22 100 100 100 100 92 14 73 32 100 43 13 93 60 100 86 97 90 100 96 100 100 78 100 100 84 54 66 94 97 58 100 100 92 100 100 16 63
22 0 0 0 0 1 100 100 100 92 100 100 100 100 100 100 100 87 15 63 43 93 96 100 42 98 100 100 100 100 100 100 100 98 100 100 100 100 100 100 100 69 94
0 0 0 0 0 0 71 100 100 100 100 100 100 89 76 100 97 2 3 5 5 53 90 100 93 100 100 100 98 100 100 100 100 100 100 100 100 92 84 100 100 74 25
0 0 4 0 0 0 0 100 100 100 100 100 100 100 100 58 5 0 2 5 5 70 100 100 86 100 100 100 89 100 100 100 100 100 100 100 93 89 98 100 100 61 87
4 0 0 0 0 0 1 74 100 100 11 100 100 100 91 55 5 5 4 4 31 100 90 97 52 100 100 100 100 100 100 100 100 100 100 100 100 72 100 100 100 95 100
7 62 0 0 0 0 0 0 61 96 100 100 100 68 97 79 5 5 2 5 36 81 50 100 96 78 100 100 100 100 100 100 100 100 82 100 100 89 95 100 100 100 100
5 15 12 9 0 0 0 2 7 27 49 34 100 100 50 4 4 1 8 2 67 58 94 100 100 62 100 99 99 100 100 100 100 100 100 80 78 100 100 100 100 100 99
37 76 55 8 2 0 0 5 2 5 21 36 15 73 5 11 4 7 4 0 53 91 100 100 97 51 100 81 100 100 100 100 100 100 100 100 100 100 99 100 100 100 88
6 0 0 100 5 65 11 62 20 25 16 33 94 7 28 4 5 34 8 5 13 83 100 100 100 100 94 99 100 100 100 100 70 100 100 100 100 100 100 100 100 100 100
85 24 58 55 9 18 1 4 0 5 7 32 85 86 70 71 13 4 6 22 6 9 83 100 100 86 38 78 86 100 100 100 100 92 100 100 100 86 98 100 95 100 100
100 31 5 67 52 4 0 3 31 8 46 44 36 99 85 100 99 0 5 27 59 21 68 100 100 71 82 56 80 98 100 100 100 100 100 100 91 100 100 100 100 100 100
100 100 19 100 100 100 0 5 0 0 14 12 44 49 41 85 72 21 5 56 64 76 40 84 100 98 96 97 100 100 95 100 100 100 98 100 100 100 100 100 100 100 100
66 100 100 100 100 58 5 1 0 2 3 31 47 6 5 5 5 18 6 64 100 99 100 100 99 100 100 99 100 100 100 100 100 100 100 100 100 97 100 100 100 100 100
83 100 100 93 87 5 4 1 0 5 11 7 5 12 20 6 9 5 23 9 90 92 98 100 100 99 100 100 100 100 100 100 100 100 100 100 100 100 100 100 100 100 100

GFSSE_prec_cloud_006.txt.gz
Cloud_Cover
34 24 5 5 23 53 99 5 14 16 30 100 100 100 100 100 68 100 100 98 98 45 100 87 100 100 100 62 7 5 74 55 100 99 5 23 37 6 30 7 13 58 99
22 21 5 5 27 9 52 99 93 41 5 9 100 100 100 100 100 100 100 100 21 100 100 100 58 100 100 22 70 5 17 69 41 18 5 83 6 69 74 62 60 40 65
0 11 5 5 63 8 5 5 67 12 92 83 83 99 100 100 100 100 100 100 97 68 100 100 97 100 99 6 98 6 99 60 39 7 5 5 25 9 49 62 74 6 5
0 3 5 5 5 5 5 5 5 5 86 13 8 29 73 100 100 100 100 100 100 100 100 100 82 100 100 34 25 95 29 56 60 5 5 5 5 18 5 6 80 11 13
2 4 5 11 100 6 23 65 5 22 5 66 59 5 48 84 100 100 100 100 100 100 100 100 100 97 97 16 50 21 100 10 19 70 10 4 5 9 55 22 5 5 5
30 1 1 2 5 6 5 5 5 4 1 1 2 5 5 5 8 8 81 100 100 100 100 100 100 93 100 89 5 7 97 5 51 44 3 5 5 5 84 90 5 5 5
24 13 1 3 50 5 3 0 4 0 0 5 5 2 0 4 5 5 11 100 100 100 100 100 100 100 100 96 84 16 6 5 91 59 8 6 5 5 19 69 88 5 5
5 21 4 0 2 36 1 5 5 0 0 0 0 0 5 2 2 5 20 100 100 100 100 100 100 89 100 100 99 5 95 8 5 6 6 8 4 9 5 26 98 32 7
6 23 21 4 2 4 0 4 1 2 0 0 0 0 0 4 1 5 59 100 100 100 100 100 100 100 100 100 95 93 83 19 10 33 14 7 89 5 5 78 100 46 5
59 81 46 14 1 3 1 3 0 0 0 0 0 0 4 1 43 41 13 97 100 100 100 100 100 100 100 100 97 6 47 10 5 5 5 31 100 29 43 100 100 96 100
100 87 94 28 27 15 12 0 0 35 86 5 0 5 100 100 3 5 74 100 100 100 100 100 100 100 100 100 100 99 90 47 5 11 21 41 26 100 100 100 88 98 54
98 43 2 10 28 9 2 5 22 99 12 71 97 87 15 18 22 60 5 100 100 100 100 100 100 100 100 100 77 100 100 99 54 96 84 89 87 84 100 100 98 48 45
0 0 5 1 0 2 24 96 97 47 100 100 26 5 29 98 90 0 11 50 100 100 100 100 100 100 100 100 100 100 100 98 76 72 100 100 100 100 100 100 100 75 100
0 0 0 0 0 5 26 32 100 100 100 63 10 5 72 76 94 96 7 69 100 100 95 77 74 100 96 100 100 100 99 100 94 62 100 100 100 100 100 94 100 55 100
0 0 0 0 0 4 5 30 100 100 84 83 85 39 100 26 100 66 98 5 54 100 80 100 78 96 67 100 100 100 100 100 100 100 100 100 100 100 100 30 20 100 94
0 3 0 0 0 0 3 20 88 100 100 100 52 96 100 97 13 73 84 5 8 99 92 100 91 92 83 100 100 99 100 100 100 91 100 100 100 94 98 99 100 100 100
1 0 5 2 0 0 0 0 84 100 100 100 100 100 100 100 47 96 11 11 1 36 32 22 53 97 94 100 100 100 97 100 100 100 100 100 100 100 100 100 100 100 96
0 0 0 0 2 2 4 0 0 0 54 100 100 100 100 26 10 31 17 18 10 3 3 6 98 100 97 38 44 100 94 100 95 100 100 100 100 100 95 100 100 100 100
13 3 0 0 1 1 13 84 100 78 40 23 52 99 100 85 86 57 22 28 96 10 52 100 100 100 86 5 100 100 70 100 100 100 100 100 100 100 100 100 91 100 100
100 100 1 3 2 42 52 10 39 44 1 15 28 12 90 100 22 57 34 21 7 15 47 96 100 100 100 32 88 94 40 98 100 100 100 100 99 100 100 100 99 88 100
100 100 100 100 65 100 95 98 100 100 100 15 41 5 66 39 87 5 20 16 24 5 10 100 96 100 100 100 100 90 38 62 100 100 100 100 100 100 100 100 100 93 100
100 100 100 100 100 100 13 5 2 4 6 4 52 5 82 92 41 5 5 17 23 20 14 96 100 100 89 99 91 94 32 73 100 100 100 99 100 100 100 100 100 100 92
100 100 100 100 100 100 80 4 0 0 0 0 1 5 9 5 53 10 5 5 12 19 16 80 100 100 96 100 100 96 100 61 82 75 100 100 90 100 100 100 100 100 100
100 100 100 100 100 100 4 11 0 0 0 2 6 5 5 5 6 5 5 3 12 24 20 21 95 55 62 100 100 70 98 100 25 94 100 100 98 100 100 100 100 100 100
100 100 100 100 100 100 5 0 0 0 0 0 5 5 1 2 4 4 5 2 10 28 17 14 29 54 91 79 65 53 98 99 100 100 99 95 87 100 100 100 100 100 100
100 100 100 100 100 100 90 0 0 0 0 7 10 17 29 15 6 5 5 5 33 28 21 80 42 75 94 82 100 98 70 94 100 91 100 100 100 99 100 100 100 100 90

GFSSE_prec_cloud_009.txt.gz
Cloud_Cover
23 7 5 5 4 3 5 5 5 68 69 100 100 96 100 79 95 100 100 36 63 100 15 100 75 8 100 100 100 87 34 90 82 100 95 28 64 41 68 36 12 48 16
0 0 5 5 5 5 5 5 5 5 5 6 75 87 100 98 100 100 100 98 98 99 78 100 83 6 100 100 21 8 5 5 72 100 80 5 6 74 89 65 94 54 75
13 14 5 1 5 5 5 5 5 15 21 76 95 44 100 100 100 100 100 100 100 100 98 100 100 75 100 100 10 8 6 4 6 100 45 5 6 11 16 98 100 83 99
4 15 4 5 5 5 5 5 5 5 24 99 100 100 100 100 100 100 100 100 100 100 100 100 100 100 100 44 100 15 96 39 5 94 60 8 17 9 5 91 92 72 21
16 4 5 5 3 7 5 14 20 90 39 27 5 71 100 31 100 100 100 100 100 100 100 100 100 100 80 29 100 100 84 14 5 5 5 96 41 5 11 100 10 15 58
42 4 2 5 6 5 6 78 6 6 6 5 56 7 5 5 12 79 100 100 100 100 100 100 100 98 100 20 92 42 99 34 5 42 52 6 5 5 14 95 5 20 60
35 13 5 3 3 6 5 5 5 2 0 4 1 0 2 5 5 5 100 100 100 100 100 100 100 100 76 68 99 88 84 52 5 5 5 5 5 5 5 19 50 75 25
11 11 8 4 2 5 5 5 5 5 0 1 1 0 0 0 0 5 49 91 100 100 100 100 100 100 100 76 100 100 100 8 5 5 27 6 5 5 14 5 5 45 14
2 4 76 5 5 23 5 4 19 5 5 0 0 1 0 0 2 5 5 42 95 100 100 100 100 100 100 100 100 100 86 6 5 5 28 10 46 79 12 5 5 26 6
37 19 22 10 4 4 1 2 48 6 5 3 1 5 0 7 0 5 5 78 91 100 100 100 100 100 100 100 100 100 95 7 5 5 5 5 8 100 93 6 44 100 16
5 42 42 27 7 3 3 75 15 5 2 32 8 9 0 4 8 5 12 98 94 100 100 100 100 100 100 100 100 100 100 98 6 5 5 5 5 85 100 87 22 11 29
55 81 44 38 32 24 4 6 10 3 4 27 75 10 62 42 10 42 39 48 93 91 100 100 100 100 100 100 100 100 100 100 92 5 9 5 5 100 100 98 96 98 82
6 31 42 51 39 26 47 43 41 36 33 24 72 100 100 69 14 9 63 5 69 99 100 100 100 100 100 100 100 100 100 100 46 5 43 100 73 100 100 92 100 100 100
4 1 16 16 33 29 33 46 39 46 100 84 18 62 44 37 21 29 84 26 5 97 100 100 100 100 100 100 100 100 100 100 100 51 44 100 98 100 100 100 98 5 100
0 0 2 11 20 26 31 36 98 100 100 52 57 90 93 84 26 19 69 8 6 66 100 100 100 100 100 100 100 100 100 100 100 100 44 93 81 100 100 100 63 84 100
3 0 2 5 5 20 28 20 92 100 100 99 76 88 100 98 53 23 92 66 5 5 40 100 100 100 100 100 100 100 100 100 100 88 74 100 93 100 100 100 15 78 100
93 47 100 87 8 9 3 5 1 11 91 100 88 94 74 84 100 82 62 12 60 64 6 98 100 100 100 100 100 100 100 100 100 100 76 99 74 100 100 100 96 100 100
100 100 100 100 100 100 28 21 22 66 100 56 26 25 100 23 9 99 53 52 21 7 4 43 100 100 100 100 100 100 100 100 100 100 100 100 100 99 100 100 100 99 100
100 100 100 100 100 100 100 100 78 66 75 84 30 40 18 72 69 16 27 27 61 17 21 12 95 100 100 100 100 100 100 100 100 100 100 100 100 100 100 100 100 100 100
100 100 100 100 100 100 100 100 100 99 29 36 32 30 22 6 6 99 28 17 18 95 26 22 14 100 100 100 100 100 100 97 100 100 100 100 100 100 84 100 100 100 97
100 100 100 100 100 100 100 100 100 100 26 14 36 21 66 100 92 29 45 26 56 24 8 11 7 9 98 100 100 100 90 100 100 86 100 99 100 100 100 100 100 100 100
100 100 100 100 100 100 100 100 46 6 12 39 10 1 0 4 88 87 95 26 13 29 24 19 10 16 48 100 100 100 100 57 97 77 100 100 100 100 100 100 100 100 94
100 100 100 100 100 100 100 100 100 91 8 5 7 5 4 5 5 47 98 93 17 15 19 6 8 63 74 100 100 100 100 79 98 100 100 100 100 100 93 73 94 99 100
100 100 100 100 100 100 100 100 100 100 96 36 1 0 5 0 4 5 5 5 6 17 21 6 72 71 48 100 100 100 100 100 100 100 100 81 100 98 81 44 99 99 100
100 100 100 100 100 100 100 100 100 100 92 43 22 6 5 4 1 5 13 16 27 32 16 23 36 38 10 35 99 100 100 100 100 99 97 98 100 100 100 34 67 100 95
100 100 100 100 100 100 100 100 100 100 83 23 12 17 28 30 14 5 5 15 30 25 25 25 19 20 52 100 100 100 100 100 100 100 75 100 100 94 100 100 90 100 100

GFSSE_prec_cloud_015.txt.gz
Cloud_Cover
1 32 21 100 86 89 44 8 5 14 23 69 70 97 44 100 100 100 100 100 100 99 80 55 100 99 56 100 100 97 100 100 60 7 5 100 5 15 23 6 82 41 5
0 17 5 60 70 19 5 4 3 5 8 26 6 12 37 68 100 100 100 100 100 100 94 100 20 34 49 80 100 100 100 100 100 25 5 51 5 5 46 58 30 78 10
0 0 4 5 29 9 5 5 5 5 5 86 54 27 89 33 100 100 100 100 100 100 90 95 93 94 96 82 100 92 100 100 65 36 21 100 73 15 45 14 8 5 64
0 0 4 5 5 5 5 5 3 5 5 5 6 31 32 61 98 100 100 100 100 100 100 94 100 100 100 94 72 82 33 40 9 5 32 100 26 88 48 97 75 7 8
0 0 4 5 5 5 5 5 5 5 5 5 5 35 61 34 36 100 100 100 100 100 100 100 100 100 100 100 87 86 20 5 11 72 54 100 52 30 5 52 16 25 7
0 0 0 3 5 5 5 6 40 5 3 5 27 75 10 9 5 6 100 100 100 100 100 100 100 100 100 100 100 99 55 9 38 98 57 92 82 36 5 5 5 71 20
0 0 4 6 100 50 7 5 5 3 4 4 34 35 20 5 5 5 100 100 100 100 100 100 100 100 100 100 100 100 98 85 34 100 96 27 32 75 40 5 5 20 30
0 0 0 5 17 8 5 100 5 0 2 0 3 5 4 5 5 5 5 100 100 100 100 100 100 100 100 100 100 100 100 100 78 100 89 36 13 60 44 17 20 22 17
2 0 6 10 4 15 5 27 5 0 3 5 5 1 0 3 0 5 5 92 82 100 100 100 100 100 100 100 100 100 100 100 100 100 100 100 46 12 6 91 100 91 48
5 0 8 37 22 12 5 57 5 5 5 52 10 17 0 1 5 4 13 88 5 100 100 100 100 100 100 100 100 100 100 100 85 55 100 84 77 75 80 100 100 99 15
0 0 0 0 0 7 5 9 83 73 49 96 33 79 10 5 5 5 3 18 99 55 100 100 100 100 100 100 100 100 100 100 100 100 100 99 58 92 99 96 100 100 96
0 0 0 0 0 0 10 19 85 89 91 96 85 100 34 12 11 5 14 5 22 91 47 84 100 100 100 100 100 100 100 100 100 100 100 97 9 9 90 100 100 100 98
0 0 0 11 0 0 32 51 76 18 11 39 100 100 100 100 82 94 64 94 22 10 34 5 98 100 100 100 100 100 100 100 100 100 100 100 5 5 65 100 100 99 68
1 1 0 7 14 3 7 0 0 66 100 98 99 100 100 100 100 62 56 74 52 34 20 46 39 99 100 100 100 100 100 100 100 100 100 100 34 8 31 100 100 100 100
4 3 1 18 12 9 15 2 1 2 2 5 5 99 100 100 100 100 7 100 77 100 71 6 18 87 100 100 100 100 100 100 100 100 100 100 8 21 74 100 100 100 94
4 4 13 5 7 36 98 47 52 30 5 1 6 47 87 42 95 100 94 94 94 90 100 80 6 5 99 100 100 100 100 100 100 100 100 100 100 87 78 100 100 96 100
5 8 85 56 56 38 99 100 100 100 100 5 5 14 40 66 5 5 52 14 54 65 100 76 30 6 100 100 100 100 100 100 100 100 92 100 100 100 64 100 100 100 100
99 100 100 100 100 100 100 100 99 100 100 80 33 96 71 37 64 87 22 1 1 14 9 5 47 7 53 97 98 98 100 100 100 100 100 100 98 100 99 100 96 100 100
100 100 100 100 100 100 100 100 100 100 100 100 100 99 93 5 16 15 32 5 1 0 2 4 8 75 18 96 99 100 99 100 100 100 100 100 91 100 88 100 100 100 100
100 100 100 100 100 100 98 83 90 100 100 65 100 100 72 5 44 53 48 90 10 3 1 5 10 13 6 53 100 100 100 100 100 100 100 100 100 100 96 100 96 100 100
100 100 100 100 100 100 60 99 83 100 100 100 100 100 19 21 11 48 47 25 64 100 94 74 23 30 26 33 97 100 100 100 100 100 100 100 100 100 100 100 100 100 71
100 35 76 100 98 100 92 88 64 92 100 53 40 8 13 28 88 84 57 100 54 93 100 100 100 25 35 52 99 100 100 100 100 100 100 100 100 96 100 100 100 100 100
92 22 28 58 96 99 100 86 55 100 74 15 13 5 14 5 49 33 70 90 100 68 99 100 100 94 50 66 47 100 100 100 100 100 100 100 100 100 100 100 91 96 96
96 100 100 100 89 65 90 100 100 100 100 42 50 27 6 15 7 30 24 66 90 87 64 100 100 82 92 36 54 100 100 100 100 100 100 100 83 100 99 100 100 100 100
100 81 100 100 100 100 100 99 100 100 100 45 100 100 98 90 48 28 11 31 70 95 42 100 100 96 58 23 23 72 100 100 100 100 100 100 70 100 100 100 76 88 100
100 87 71 100 100 100 100 100 99 100 100 100 100 100 100 5 20 71 65 70 48 26 33 94 100 100 42 21 45 46 70 100 100 100 100 100 100 100 88 78 94 15 96

GFSSE_prec_cloud_021.txt.gz
Cloud_Cover
8 5 5 5 5 5 5 5 5 14 10 32 5 5 1 5 46 100 100 98 100 89 100 98 90 100 100 24 100 100 28 30 100 100 6 5 5 2 0 5 10 38 10
13 4 5 5 5 5 5 5 5 5 5 5 5 50 54 51 100 100 72 100 100 82 100 100 100 100 100 100 33 39 9 63 100 100 55 5 22 2 2 5 82 35 56
4 0 5 5 5 10 5 5 0 3 5 5 5 92 88 34 100 100 100 100 100 100 100 100 100 100 100 100 93 18 94 90 100 100 8 46 100 64 4 5 5 9 29
1 0 1 5 5 13 5 5 5 5 2 5 4 5 97 96 78 100 100 95 99 100 100 100 100 100 100 100 100 100 95 100 100 96 58 17 57 92 13 5 6 5 6
0 0 4 5 5 5 23 5 4 4 11 6 13 37 74 74 44 98 98 100 100 100 100 100 100 100 100 100 100 100 100 65 34 12 99 100 100 97 17 5 5 5 8
8 2 0 5 5 5 5 5 1 4 11 10 9 5 5 47 99 8 50 68 85 100 100 100 100 100 100 100 100 100 100 100 93 80 88 24 61 90 46 5 5 8 5
37 2 0 5 5 5 5 5 1 0 0 0 2 5 17 51 27 7 19 70 100 100 100 100 100 100 100 100 100 100 100 100 100 100 100 45 24 5 95 5 22 100 31
98 16 1 0 5 3 5 2 0 0 0 1 0 0 7 0 4 24 98 52 99 100 100 100 100 100 100 100 100 100 100 100 95 100 100 87 95 5 16 30 100 100 5
65 36 12 1 2 4 1 1 5 1 0 0 0 2 0 8 0 2 6 64 99 100 100 100 100 100 100 100 100 100 100 100 100 99 100 74 100 93 5 19 100 42 81
97 98 57 32 20 11 4 4 5 5 0 0 1 0 0 0 0 0 0 0 64 96 100 100 100 100 100 100 100 100 100 100 100 100 100 50 70 100 15 8 87 49 100
91 100 24 74 100 77 68 22 26 11 11 8 9 5 5 9 62 16 0 0 0 25 100 90 91 92 100 100 100 100 100 100 100 100 100 100 100 100 9 98 76 89 100
65 70 99 6 35 92 100 100 89 97 81 85 99 98 100 100 100 99 100 86 3 1 77 100 100 85 100 50 100 100 100 100 100 100 100 100 100 100 72 26 100 100 45
85 100 100 88 5 14 100 100 100 100 100 100 100 100 100 100 100 100 100 100 93 5 14 97 100 100 99 93 91 76 100 100 100 100 100 100 100 100 93 44 100 100 80
76 68 88 98 100 30 98 49 54 52 98 100 100 100 100 89 77 61 60 99 100 100 99 100 62 100 100 100 100 52 97 100 100 94 100 100 98 100 100 12 100 100 100
10 40 86 86 17 64 54 25 8 66 98 98 6 89 100 99 90 49 6 14 94 100 100 100 100 100 75 100 100 65 96 100 100 97 86 100 100 100 100 66 94 100 100
1 42 51 58 46 23 19 7 44 96 66 7 77 68 5 36 83 100 92 56 88 95 100 100 100 100 100 91 100 100 100 100 100 93 97 98 100 100 100 100 100 100 100
6 20 7 92 75 47 100 100 83 99 93 100 100 100 21 12 5 40 80 49 13 49 100 100 100 76 100 100 100 100 100 100 100 90 100 100 76 100 100 100 100 100 100
6 69 83 91 85 38 78 27 100 100 100 100 100 100 100 49 32 10 5 5 15 100 100 100 100 78 100 53 100 100 100 100 100 100 100 99 85 98 100 100 100 100 100
1 100 100 96 96 100 99 92 74 100 61 100 98 100 100 13 57 40 10 36 58 100 77 64 100 100 100 100 100 45 100 100 97 100 100 100 100 100 100 100 100 100 84
61 93 95 97 100 100 100 86 100 100 100 100 82 100 100 94 15 5 91 81 97 99 56 6 6 100 12 33 79 63 100 100 100 100 100 100 100 100 95 100 100 100 100
61 98 26 68 100 100 100 100 87 96 100 96 100 100 68 57 63 17 5 56 100 45 54 84 100 13 27 69 58 47 22 50 100 100 100 100 100 100 100 75 100 100 100
99 98 11 95 100 100 100 100 100 97 81 56 8 32 58 100 64 69 58 91 12 5 5 15 97 73 85 9 5 28 47 8 49 100 100 100 100 96 100 100 99 98 100
100 99 100 100 99 100 96 100 100 80 78 98 95 58 100 100 51 100 94 100 6 3 5 7 5 67 89 98 77 51 80 26 57 100 100 100 100 100 100 100 100 100 70
100 100 100 100 100 100 100 100 100 97 55 71 16 28 58 92 99 100 100 44 5 10 19 5 92 62 100 100 100 100 33 88 60 100 100 100 100 100 100 100 100 100 100
100 100 100 81 99 93 100 89 57 83 71 72 86 100 100 100 100 100 47 11 18 1 5 27 38 99 32 99 100 100 85 77 70 51 100 100 100 100 100 100 100 100 100
100 100 100 100 89 23 16 8 26 86 48 89 71 93 33 62 14 7 24 24 52 49 23 29 95 100 100 37 75 100 100 85 51 67 100 100 100 100 100 100 100 100 100

GFSSE_prec_cloud_027.txt.gz
Cloud_Cover
4 0 0 0 5 5 5 5 5 15 5 5 5 4 5 3 17 8 31 100 100 100 100 100 96 100 100 100 100 100 100 100 30 43 100 100 5 28 5 4 5 11 4
0 0 4 3 5 5 5 9 6 5 5 2 5 5 6 100 84 5 100 98 100 100 100 100 100 100 100 100 100 100 100 100 31 99 100 16 0 19 24 30 5 4 4
0 0 0 5 5 5 5 0 0 0 0 10 5 0 2 4 9 88 93 20 100 100 100 100 100 100 100 100 100 100 100 100 54 100 100 100 7 51 92 50 5 5 5
0 0 0 5 5 5 4 0 0 3 0 1 0 2 1 5 7 100 59 100 100 96 100 100 100 100 100 100 100 100 100 100 77 100 100 100 34 19 100 6 5 5 5
0 0 1 5 5 5 5 2 5 31 2 3 5 5 5 5 5 58 98 100 100 100 100 100 100 100 100 100 100 100 100 100 100 100 100 99 7 7 100 5 8 5 5
0 0 2 5 5 4 1 4 5 0 0 0 0 5 5 39 5 5 100 100 100 100 100 100 100 100 100 100 100 100 97 100 100 100 100 92 71 5 37 9 100 27 5
0 0 0 0 5 5 5 0 0 0 0 0 0 0 0 1 5 5 10 100 100 100 100 100 100 100 100 100 100 100 100 100 100 100 100 100 74 42 53 98 100 7 5
0 46 1 0 5 5 5 5 5 4 2 0 0 0 0 0 2 5 5 81 100 100 100 99 100 99 100 100 100 100 100 100 100 100 100 100 100 74 100 100 74 48 5
1 0 0 1 3 5 5 5 1 0 0 5 4 1 0 0 0 0 3 40 48 100 100 98 100 100 100 100 100 100 100 100 100 100 100 100 100 80 100 100 22 5 10
0 0 0 0 0 4 5 12 5 2 5 3 5 58 98 78 1 0 0 3 5 95 100 80 100 100 100 75 100 100 76 100 79 100 100 100 100 100 100 100 100 86 76
0 0 0 0 5 5 14 78 89 10 5 5 37 6 79 99 100 97 22 0 5 12 42 93 100 100 96 98 100 89 90 83 91 52 78 100 100 100 100 100 100 47 79
0 0 0 0 5 5 56 98 100 87 68 49 11 97 98 98 70 100 100 91 4 2 5 30 84 100 100 85 100 99 100 68 29 100 92 100 82 100 100 100 100 64 86
0 0 0 3 5 15 100 100 100 100 62 98 86 100 100 100 100 100 99 47 100 80 3 2 99 87 100 100 100 100 100 100 100 87 100 99 75 100 100 100 100 100 69
0 19 0 1 26 40 100 100 100 100 98 100 100 100 100 100 100 98 100 90 43 81 98 10 79 100 100 100 100 100 100 100 100 100 100 98 100 100 100 99 100 100 96
0 2 0 4 5 98 100 100 100 100 92 98 100 99 38 66 100 100 56 49 54 50 71 92 100 100 100 100 100 100 100 100 88 98 100 100 100 99 100 100 100 100 100
0 0 0 5 5 100 100 100 100 100 100 100 100 100 100 99 99 100 100 22 5 22 67 81 79 81 100 100 100 100 100 100 100 99 68 100 100 80 100 100 100 100 100
0 0 0 17 5 5 67 100 100 100 100 100 61 100 100 100 84 90 100 100 6 61 100 100 98 97 100 100 100 100 100 100 100 100 100 100 87 100 100 100 100 100 100
0 0 5 39 5 7 89 100 100 100 100 100 100 87 100 100 100 100 100 99 74 89 100 100 100 100 100 100 100 100 100 100 100 100 100 100 60 97 69 100 100 100 100
0 0 2 33 65 18 100 100 100 100 100 100 100 100 93 99 100 100 100 100 98 98 100 100 100 63 100 100 100 100 100 100 100 100 100 100 100 83 100 89 100 100 100
0 4 93 93 20 81 100 100 100 100 88 100 100 100 100 100 100 76 100 100 82 46 100 100 100 100 100 100 100 100 100 100 96 100 100 100 100 100 100 100 98 100 100
0 0 0 13 74 48 100 100 100 100 100 100 100 100 100 100 100 100 100 100 100 54 74 100 100 100 100 100 100 100 100 100 100 100 100 93 97 100 99 100 94 100 100
0 0 0 54 100 100 100 100 100 100 100 100 100 100 100 100 100 100 100 100 6 25 98 46 100 100 100 100 100 100 100 100 100 100 63 76 100 100 100 100 100 100 100
34 0 4 81 100 100 100 100 100 100 98 100 96 91 99 81 99 100 98 4 3 5 6 33 42 100 100 100 100 100 100 100 100 90 94 73 95 96 100 100 100 100 100
0 0 33 34 100 100 100 100 100 99 87 91 98 95 100 18 3 5 13 2 5 1 4 9 5 5 77 99 100 100 100 100 100 22 50 28 8 98 100 100 97 100 100
0 0 19 45 100 100 100 100 100 100 98 100 100 50 5 2 4 0 4 5 5 2 5 5 3 5 5 23 100 100 100 100 100 100 50 64 81 95 99 97 100 100 100
0 2 84 100 100 100 100 100 100 100 96 100 72 3 5 5 0 0 1 5 4 5 1 2 5 5 5 60 73 100 100 100 98 100 100 100 51 48 91 95 100 100 100

GFSSE_prec_cloud_033.txt.gz
Cloud_Cover
7 0 0 0 0 0 5 5 81 100 23 16 16 66 5 5 27 12 44 84 100 100 100 100 78 100 100 100 100 100 100 94 100 97 100 100 27 100 5 6 5 5 5
0 0 0 0 0 5 5 5 92 67 17 5 5 76 99 97 42 5 95 85 100 100 100 86 76 100 100 100 97 100 100 100 100 99 100 62 15 60 6 12 5 5 5
0 0 0 0 4 5 5 5 5 5 5 30 84 44 26 3 23 97 85 88 100 100 24 100 93 100 99 100 100 100 100 100 100 100 99 94 44 6 74 23 7 6 9
0 0 0 5 5 5 5 5 0 3 1 5 1 0 4 4 0 5 28 89 96 100 100 100 100 100 100 100 100 100 100 90 90 100 44 100 68 12 85 76 5 36 87
2 0 0 5 5 5 5 5 5 4 4 0 5 5 5 5 5 5 5 100 74 100 100 100 100 100 100 100 100 100 100 98 100 100 68 100 100 91 100 78 11 5 18
19 0 4 5 5 5 5 5 5 5 5 0 0 0 5 5 5 5 5 5 5 23 70 91 50 100 100 100 100 100 100 100 100 100 66 100 100 86 100 99 41 5 12
27 30 11 5 5 5 5 5 5 5 5 4 0 0 0 7 6 14 5 6 6 11 41 72 99 100 100 100 100 100 100 100 100 98 100 100 100 100 100 100 70 29 5
25 33 15 0 5 5 5 5 5 4 5 4 5 0 0 0 9 10 10 5 5 44 56 100 100 100 99 100 100 100 99 100 100 75 94 100 100 100 99 100 100 10 5
24 38 27 10 3 5 9 5 37 26 4 26 5 10 2 0 0 2 5 7 56 5 100 100 93 100 100 95 100 100 100 99 100 85 67 28 100 100 100 100 100 92 14
42 64 69 28 0 0 1 5 8 13 93 6 69 97 100 100 78 2 2 2 8 5 32 49 49 100 100 99 100 100 100 100 100 97 84 65 93 100 100 100 100 91 99
52 55 56 19 18 15 0 8 5 68 66 5 16 26 99 99 100 100 44 3 5 6 18 82 88 92 100 98 100 100 100 95 94 92 71 77 47 86 100 100 100 100 100
42 43 29 24 29 24 3 42 22 9 74 43 83 24 5 44 100 100 85 88 4 1 26 92 91 5 11 39 98 100 100 100 100 100 100 88 60 100 100 100 98 100 100
0 0 14 18 21 24 12 83 100 100 62 98 99 96 64 5 67 69 90 100 100 8 2 10 74 38 31 50 84 100 100 100 100 92 100 100 100 100 100 96 98 99 100
0 0 0 0 6 17 24 100 100 99 100 100 100 89 60 46 99 7 53 69 85 5 4 2 10 23 53 87 94 71 18 97 99 100 100 100 100 88 100 100 100 100 100
0 0 0 2 6 10 100 100 100 95 100 100 100 100 98 100 100 48 55 51 74 25 17 5 15 23 7 79 62 80 91 77 100 100 100 100 100 100 98 100 100 81 99
0 0 0 0 0 12 100 100 100 100 100 100 100 100 100 100 100 100 51 62 86 100 100 100 98 66 21 52 99 98 100 100 100 100 100 91 100 98 100 100 100 100 99
0 0 0 0 5 50 100 100 97 100 100 100 100 100 100 100 100 100 100 100 100 100 100 100 100 100 99 26 20 99 94 100 100 98 91 32 99 100 99 100 100 100 100
0 0 0 1 81 100 100 100 100 100 100 100 100 100 100 100 100 100 100 100 100 100 98 68 100 100 100 100 100 45 64 90 100 84 58 62 54 72 80 100 16 74 93
0 0 7 69 100 100 100 100 100 94 100 81 98 80 100 100 100 100 100 100 100 100 100 100 100 96 100 85 54 98 71 41 88 36 38 53 100 100 100 100 100 96 100
0 1 14 33 69 94 99 100 100 100 100 100 89 100 100 100 100 100 100 100 100 100 100 100 46 92 100 99 29 96 100 98 100 100 100 98 93 100 100 100 100 99 100
0 0 52 97 18 99 100 100 100 100 100 100 100 100 100 91 100 100 100 100 100 100 100 22 44 81 76 47 86 97 97 100 100 86 100 100 100 100 100 100 100 100 100
2 28 28 38 11 38 100 99 100 100 100 100 100 100 100 100 100 100 100 100 100 31 7 20 82 97 32 25 13 100 87 100 100 96 76 99 100 100 100 100 100 100 100
5 31 10 6 5 89 100 100 100 100 100 100 100 100 100 100 98 90 67 53 20 5 10 1 29 98 47 96 45 17 93 100 100 100 99 99 100 100 98 100 100 100 100
24 0 8 0 5 99 100 100 100 100 100 100 100 100 100 100 100 100 81 99 59 21 5 9 12 23 33 51 99 19 34 68 95 100 100 100 99 100 100 93 67 99 93
9 4 6 0 1 43 100 98 100 100 100 100 94 100 100 100 100 85 14 5 5 6 6 12 14 52 47 24 12 22 16 65 100 100 100 100 100 73 100 100 100 92 100
7 0 0 0 5 38 100 98 100 85 100 100 100 100 100 67 64 81 15 16 11 5 3 1 7 32 50 28 18 5 9 36 77 100 99 100 100 100 100 98 97 100 100

GFSSE_prec_cloud_036.txt.gz
Cloud_Cover
14 0 0 0 0 1 5 5 5 32 5 5 14 5 5 6 40 5 92 100 100 100 100 99 91 100 100 100 100 100 100 98 99 61 99 11 6 93 5 5 5 5 5
0 0 0 0 0 3 5 5 5 5 5 5 5 20 5 5 5 5 5 56 100 100 100 100 100 100 100 100 100 100 100 42 100 99 100 100 49 7 19 5 5 6 5
0 0 0 0 4 5 7 6 5 5 4 5 5 5 5 17 56 94 66 22 100 99 100 100 100 83 100 100 100 100 100 89 100 99 99 100 100 22 5 5 5 10 12
2 2 0 1 5 5 5 5 5 2 0 2 0 1 5 2 1 3 30 50 99 100 100 100 92 99 100 100 100 100 100 59 97 100 100 92 80 5 0 92 5 5 33
23 9 0 3 5 4 5 5 4 2 5 5 5 5 5 5 5 5 5 48 99 100 100 100 100 98 100 100 100 83 100 100 99 84 37 34 58 58 12 75 55 5 5
40 2 0 2 3 0 1 5 5 28 1 4 0 0 0 4 5 5 5 5 36 100 99 100 100 100 100 100 100 100 100 100 100 100 59 75 100 100 100 100 52 7 5
35 6 0 0 0 5 5 5 4 5 5 4 1 0 0 0 0 0 4 16 7 53 57 88 100 100 100 100 99 98 100 100 83 97 97 86 100 100 100 100 100 6 5
29 16 0 0 0 5 5 6 6 5 30 5 25 2 3 6 8 4 2 7 58 100 90 99 100 100 100 96 100 100 100 100 100 97 74 100 100 100 100 100 100 30 5
16 30 9 0 2 20 6 24 32 5 28 59 10 62 33 7 5 6 2 7 95 82 100 93 100 84 100 92 100 100 100 66 79 100 100 100 99 100 100 93 100 100 6
43 41 42 14 9 0 10 5 5 5 5 5 5 30 33 99 35 9 2 3 98 96 98 100 100 100 100 100 53 100 100 100 26 100 100 100 62 100 100 100 99 94 59
62 66 92 44 41 17 2 7 5 5 8 6 5 5 5 23 100 37 21 0 8 98 100 100 100 97 71 98 66 77 100 98 92 100 100 100 84 100 97 100 100 100 100
97 100 100 40 37 26 5 8 52 14 27 38 46 12 93 20 39 100 86 16 5 10 22 94 94 100 78 26 86 100 100 85 86 98 83 99 98 73 100 100 100 52 90
38 96 73 43 39 39 36 57 90 86 35 50 27 12 72 41 76 52 87 100 72 4 10 5 43 93 39 6 6 74 100 100 100 94 100 100 100 69 21 83 94 100 56
4 16 28 32 41 49 34 39 93 100 100 91 100 100 100 80 17 46 82 62 35 34 7 5 25 78 55 43 96 100 91 95 100 100 99 98 98 100 71 100 96 88 94
0 0 0 16 27 37 71 90 100 100 100 100 77 100 100 100 100 100 84 52 59 29 12 7 5 71 100 70 32 87 71 53 98 97 92 88 68 100 100 89 100 100 100
0 0 0 0 5 17 100 100 100 100 100 100 100 88 99 100 100 100 100 100 100 100 80 5 6 19 41 82 99 100 81 65 75 100 100 100 100 9 80 100 94 93 98
0 0 0 8 99 100 100 100 100 100 100 100 100 100 100 100 100 97 92 100 95 80 70 89 99 99 91 26 6 19 99 100 99 94 88 100 100 94 100 73 72 100 100
0 1 3 100 100 100 100 100 100 100 100 100 100 100 100 100 100 100 90 22 100 50 93 91 100 100 67 36 14 5 22 7 91 100 100 100 100 100 100 100 100 97 100
0 47 99 100 100 100 100 87 100 89 100 100 100 90 100 74 98 95 86 97 100 100 100 98 100 100 100 87 71 5 5 17 95 76 99 100 96 100 100 100 95 100 100
3 74 88 35 100 100 100 95 100 100 93 92 100 100 96 100 100 89 99 100 100 100 100 100 99 49 47 86 90 100 85 88 98 83 52 100 96 99 94 100 100 100 100
4 67 100 18 70 100 100 100 97 100 100 100 100 99 100 92 76 94 93 100 74 98 32 20 39 53 53 35 5 5 39 93 100 100 95 98 100 100 100 99 100 100 100
100 97 100 23 26 60 100 100 100 100 100 100 100 100 100 88 91 100 100 100 100 9 18 30 69 100 89 40 10 20 13 74 93 100 100 100 100 100 99 100 88 100 100
100 100 85 28 1 0 38 88 95 100 100 100 100 100 91 52 77 100 100 100 87 76 15 5 50 100 100 100 44 12 29 43 76 84 100 100 100 100 100 100 99 100 89
100 100 100 100 3 0 100 100 99 100 100 100 100 100 100 100 100 100 93 100 78 11 21 14 10 62 100 90 99 98 18 43 77 95 100 100 100 100 100 100 100 77 88
100 100 100 100 50 12 100 100 100 100 100 100 100 100 100 100 99 58 95 96 24 18 19 25 38 75 98 100 98 66 97 36 63 47 100 100 100 100 100 100 100 100 100
100 100 100 49 4 36 100 100 100 100 100 100 100 98 100 100 100 100 98 34 41 45 37 14 27 60 66 86 44 29 8 19 16 41 86 100 100 100 100 100 100 100 100

GFSSE_prec_cloud_042.txt.gz
Cloud_Cover
3 1 5 4 5 5 5 5 5 5 0 0 0 2 96 99 100 100 100 100 100 100 100 100 100 100 100 100 99 100 83 48 64 38 5 5 5 5 0 0 3 5 7
0 0 0 0 6 5 5 5 5 1 0 0 0 0 5 36 94 100 100 100 100 100 100 100 100 100 100 100 100 100 100 100 28 5 5 5 5 6 5 0 82 5 1
0 0 0 0 2 5 5 5 5 0 0 0 2 5 29 5 16 100 100 100 100 100 100 100 100 100 100 100 100 100 100 100 24 41 83 70 46 100 58 13 4 5 12
0 0 2 0 5 5 4 5 1 0 2 0 0 0 0 0 0 85 100 100 100 100 100 100 100 100 100 100 100 100 100 100 63 7 77 30 100 100 100 100 16 13 5
4 26 9 0 2 4 0 0 0 0 0 3 3 5 5 3 1 5 100 100 100 100 100 100 100 100 100 100 100 100 100 100 7 39 100 59 48 100 100 100 14 5 5
27 72 1 5 0 1 0 3 0 0 0 0 2 5 5 5 0 60 80 100 100 100 100 100 100 100 100 98 100 100 100 100 100 55 100 65 97 100 100 100 91 3 5
20 68 1 0 0 1 0 6 14 5 0 2 4 4 2 4 5 42 71 100 100 100 100 100 100 95 97 98 100 100 100 100 100 84 100 54 17 100 100 100 100 100 10
21 56 71 0 0 0 1 1 1 5 3 0 2 5 0 3 8 6 36 63 79 100 100 100 100 100 100 21 63 100 100 100 100 71 63 78 85 86 100 100 100 100 62
28 85 57 30 7 4 28 5 5 4 31 3 25 1 0 0 0 5 22 96 77 100 100 100 100 100 100 87 98 100 99 100 97 81 98 58 99 100 100 100 100 100 84
40 44 42 96 73 72 23 47 31 96 56 5 0 10 28 4 0 4 57 22 100 100 100 100 99 99 74 99 94 54 69 51 100 100 100 98 100 86 100 100 100 100 69
26 33 71 97 94 100 90 39 54 65 5 5 5 5 6 7 15 16 10 41 65 95 98 88 97 99 100 100 46 100 93 87 100 100 100 65 50 84 100 100 100 100 100
2 15 24 37 39 92 24 68 35 94 25 18 14 70 100 97 66 68 6 13 46 82 82 69 58 99 96 99 100 99 92 100 100 100 100 70 100 63 100 100 100 100 100
0 11 18 20 26 26 45 53 100 67 32 64 66 100 100 92 99 100 94 59 39 66 92 97 22 45 99 100 99 83 41 31 90 100 93 61 98 65 100 93 95 100 100
0 0 11 23 67 31 96 10 58 100 70 100 100 100 99 100 94 100 100 100 100 65 72 92 100 100 100 97 100 100 100 100 75 88 90 68 47 100 100 100 100 100 88
0 0 7 52 29 35 100 100 100 100 100 100 100 100 100 100 100 100 100 100 100 100 100 52 45 88 100 100 100 100 100 66 88 96 98 100 100 100 100 100 100 100 96
2 98 80 96 82 93 100 100 86 100 100 100 95 100 100 100 100 100 88 100 86 55 100 100 100 81 75 65 97 64 81 100 95 99 100 100 100 100 100 100 100 100 100
10 82 100 100 100 100 100 100 99 100 100 100 100 100 100 100 100 92 94 60 41 100 80 100 81 48 37 100 94 33 46 92 100 100 100 100 100 100 100 97 100 100 100
57 100 100 100 100 100 99 100 100 100 99 100 100 100 100 100 90 56 86 68 58 87 79 56 92 100 95 65 72 28 63 80 67 39 98 100 100 100 100 100 100 100 100
100 100 100 100 100 100 83 100 100 100 100 100 100 100 100 94 100 100 78 31 81 100 64 46 98 81 89 96 97 100 85 61 76 31 42 73 55 94 100 100 100 100 100
100 100 100 100 100 100 84 96 100 100 100 100 100 100 100 100 96 100 100 90 99 44 100 92 82 26 30 38 62 86 100 72 92 88 43 83 32 8 6 62 78 80 99
100 100 100 100 100 100 100 100 100 100 100 100 100 100 100 100 100 100 100 100 42 100 68 42 39 28 16 21 31 27 52 48 64 7 5 48 99 84 56 24 26 20 64
100 100 100 100 100 100 58 32 59 83 100 100 100 100 100 100 100 100 100 100 100 100 100 100 92 39 54 90 24 70 14 95 48 61 41 32 30 99 84 59 86 100 94
100 100 100 100 100 100 100 71 49 5 82 100 100 100 100 100 100 100 100 100 100 75 74 78 93 44 16 54 56 86 14 89 30 80 39 86 60 100 100 100 92 80 98
100 100 100 100 100 100 100 8 22 76 100 100 100 100 100 100 100 100 100 100 92 74 100 96 58 35 86 70 88 80 72 14 11 73 95 93 89 77 100 100 100 97 100
20 100 50 78 10 5 16 0 25 70 100 100 100 100 100 95 100 99 100 100 100 100 100 100 46 81 99 84 98 38 76 82 26 34 96 71 34 100 100 100 100 100 100
5 7 5 77 54 3 2 3 40 89 100 100 100 100 100 100 100 100 100 100 100 84 89 32 36 50 40 50 36 81 74 31 16 33 94 95 61 100 100 100 100 100 100

GFSSE_prec_cloud_048.txt.gz
Cloud_Cover
0 0 0 0 0 1 3 5 4 5 5 5 5 5 5 100 100 100 98 100 100 100 100 100 100 100 100 100 100 100 95 97 100 86 25 90 5 5 4 5 5 2 1
0 0 0 0 0 2 1 1 4 3 0 0 0 5 5 41 100 93 87 100 100 100 100 100 100 100 100 100 99 100 100 100 100 86 47 100 100 43 5 5 5 1 5
0 0 0 0 0 0 0 0 0 0 0 0 0 82 10 5 87 100 100 100 100 100 100 100 100 100 100 100 100 100 100 100 100 100 28 61 100 90 5 5 0 0 5
0 0 0 0 0 0 0 0 0 0 0 0 0 2 98 57 40 100 100 100 99 47 97 69 70 100 100 100 100 100 74 100 79 98 97 85 70 100 93 37 29 0 5
0 0 0 0 0 0 0 0 0 0 0 0 0 0 100 64 28 100 100 100 100 51 73 91 100 52 100 100 100 100 99 100 100 89 100 100 80 81 100 94 100 0 3
3 0 0 0 0 0 0 0 0 0 0 0 0 0 31 75 23 72 100 100 100 94 63 100 100 99 100 100 100 100 100 100 100 95 88 93 16 14 100 100 97 95 5
0 0 0 0 0 8 0 0 0 0 0 0 1 0 5 26 5 79 100 100 100 100 30 31 99 100 100 100 100 85 99 100 100 100 100 66 48 12 71 99 100 100 31
0 0 0 0 0 0 0 0 0 0 0 0 0 0 0 45 6 57 100 93 100 100 60 88 30 28 100 100 100 100 100 100 100 100 95 98 94 5 64 74 100 85 93
1 0 0 8 0 0 0 0 0 0 2 6 1 0 2 0 1 78 100 72 100 100 28 94 30 5 81 100 100 98 55 98 100 94 57 94 100 82 92 100 89 40 99
4 0 0 0 1 0 1 2 1 0 0 5 0 0 0 2 5 70 52 39 100 49 100 100 100 59 20 52 100 23 99 100 79 100 77 96 100 100 10 19 15 65 92
18 57 0 0 0 0 1 0 5 4 4 2 3 0 47 100 100 100 67 87 100 100 100 100 95 98 100 66 59 12 86 100 87 100 86 94 100 42 89 25 5 82 5
32 3 0 0 0 0 15 3 0 5 100 28 22 94 100 100 100 100 17 41 99 100 100 100 98 16 48 20 94 69 83 36 83 95 72 92 94 81 45 61 6 100 49
25 16 0 0 0 3 44 98 96 100 100 100 100 100 100 100 100 100 97 95 12 60 100 100 100 40 81 72 56 70 40 17 58 90 94 100 100 77 82 31 12 18 74
31 82 6 44 40 99 63 100 100 100 100 100 100 100 100 100 100 98 81 14 22 7 16 99 100 100 98 97 69 99 90 67 58 100 100 100 100 96 100 100 95 83 88
96 85 51 64 86 81 72 28 22 100 100 100 100 97 88 88 78 83 16 50 100 100 98 100 100 100 100 85 75 100 100 100 94 50 47 90 100 98 100 100 100 100 100
100 100 100 94 99 100 100 100 66 100 100 99 100 100 86 38 94 8 67 100 100 100 100 90 100 100 100 100 74 100 100 100 100 100 100 100 81 65 100 100 100 100 100
100 100 100 100 100 100 100 94 36 15 91 10 81 100 100 85 53 100 90 100 100 100 100 100 100 100 100 36 91 100 100 100 90 95 99 97 84 20 94 100 100 100 100
100 100 100 100 100 100 100 100 88 92 85 69 100 99 99 75 6 25 98 100 100 100 100 100 100 100 74 100 100 100 100 100 91 57 100 100 22 78 34 100 100 100 100
100 100 100 100 100 98 12 100 94 100 74 100 73 98 100 100 18 7 77 98 100 100 100 100 100 100 97 88 100 89 70 52 7 5 30 100 100 100 78 7 100 100 94
100 100 100 100 100 37 6 86 100 100 31 49 96 89 100 100 96 78 92 20 96 100 95 92 100 100 100 100 94 33 29 28 5 5 96 99 100 100 53 5 58 98 92
100 100 100 100 100 42 44 32 100 83 47 100 32 98 18 99 100 93 100 100 100 100 100 84 86 76 86 100 100 100 59 6 21 5 2 32 96 100 100 98 90 100 97
100 99 100 100 100 36 26 100 94 44 100 100 100 96 100 100 100 66 100 100 100 99 94 51 99 100 100 100 80 80 9 43 8 20 5 96 100 82 68 79 91 100 100
100 98 86 99 100 14 100 100 81 5 49 85 100 100 100 100 100 99 100 100 100 100 100 100 82 70 100 95 62 41 5 35 41 8 5 52 99 100 53 23 70 100 100
86 80 93 53 100 88 100 100 6 77 100 56 45 100 100 88 100 100 100 99 91 85 100 100 100 100 94 100 57 5 11 5 53 5 93 100 100 100 63 100 7 100 100
100 49 100 100 100 97 100 83 7 10 88 83 95 98 80 100 100 100 100 100 97 100 100 100 60 99 100 86 5 7 5 5 5 5 88 81 100 100 74 95 100 100 100
100 100 100 47 100 94 100 95 94 7 9 51 49 21 100 99 100 90 60 87 65 100 30 89 71 100 94 16 5 5 5 5 8 7 100 100 88 100 100 100 100 100 100